ARIANE 2 R/B

基本信息
目录编号:
19122
目录名称:
ARIANE 2 R/B
国际标识:
1988-040B
轨道中心:
EARTH
物体状态:
在轨
发射日期:
1988-05-17 UTC
国别:
法国 (FR)
轨道信息
数据来源: 国际轨道数据
星历时间: 2026-07-13T21:29:05+0800
半长轴: 23685.324km
偏心率: 0.7094017
轨道倾角: 7.345°
近地点辐角: 250.569°
升交点赤经: 274.528°
平近点角: 25.244°
近地点: 504.777km
远地点: 34109.597km
周期: 604.615分钟
每日圈数: 2.381682
详细信息
发射场:
FRGUI
轨道高度:
LEO
数据来源:
AOE Integration Group
参考系:
TEME
时间系统:
UTC
历元类型:
SGP4
2D轨道图
3D轨道图
轨道高度分析图
轨道倾角分析图
轨道综合分析图
查看轨道综合分析图